Torna al catalogo

STARLINK-34266

AttivoComunicazioniVLEO
NORAD 65093·PAYLOAD·🇺🇸 United States

Lanciato Aug 4, 2025 da Cape Canaveral Space Force Station

Loading…

Prossimi Passaggi (prossime 24 ore)

TLE

AggiornatoSource: CelesTrak SupGP

Epoca: Sep 14, 2026, 22:53 UTC

1 65093C 25167R   26257.95395833  .00006168  00000+0  18229-3 0  2573
2 65093  53.1571 219.7656 0001518  90.6986  12.6379 15.34379990    15

Traccia STARLINK-34266 in tempo reale con AllMySat

Download on the App Store